Location: Sevilla
(37.3933°N, 5.9839°W)
Time: 22:50:14
(UTC+02:00)

Transit 4A - All Passes

Search period start: 23 June 2024 00:00
Search period end: 03 July 2024 00:00
Orbit: 871 x 972 km, 66.8° (Epoch: 23 June)

Date Brightness Start Highest point End Pass type
(mag) Time Alt. Az. Time Alt. Az. Time Alt. Az.
23 Jun - 00:07:21 10° SSW 00:13:11 74° ESE 00:18:59 10° NNE visible
23 Jun - 01:56:11 10° W 02:00:06 18° NW 02:04:01 10° N visible
23 Jun - 09:11:49 10° NNW 09:17:41 54° ENE 09:23:38 10° SE daylight
23 Jun - 10:59:08 10° WNW 11:03:34 22° WSW 11:08:03 10° SSW daylight
23 Jun - 22:33:41 10° SE 22:36:36 14° ESE 22:39:29 10° ENE visible
24 Jun - 00:16:21 10° SSW 00:22:11 74° WNW 00:28:01 10° NNE visible
24 Jun - 02:07:01 10° WNW 02:09:31 13° NW 02:12:01 10° NNW visible
24 Jun - 07:36:23 10° N 07:39:31 14° NE 07:42:40 10° ENE daylight
24 Jun - 09:20:44 10° NNW 09:26:45 81° ENE 09:32:52 10° SSE daylight
24 Jun - 11:09:30 10° WNW 11:12:19 14° WSW 11:15:10 10° SW daylight
24 Jun - 22:40:55 10° SSE 22:45:21 23° ESE 22:49:46 10° ENE visible
25 Jun - 00:25:38 10° SW 00:31:16 49° WNW 00:36:54 10° NNE visible
25 Jun - 07:44:34 10° N 07:48:54 20° NE 07:53:18 10° E daylight
25 Jun - 09:29:47 10° NNW 09:35:43 69° WSW 09:41:49 10° SSE daylight
25 Jun - 22:48:56 10° S 22:54:10 35° ESE 22:59:23 10° NE visible
26 Jun - 00:35:12 10° WSW 00:40:25 33° NW 00:45:40 10° N visible
26 Jun - 07:53:05 10° N 07:58:12 29° NE 08:03:24 10° ESE daylight
26 Jun - 09:39:00 10° NW 09:44:40 45° WSW 09:50:27 10° S daylight
26 Jun - 22:57:23 10° S 23:03:02 54° ESE 23:08:42 10° NE visible
27 Jun - 00:45:07 10° WSW 00:49:40 23° NW 00:54:15 10° N visible
27 Jun - 08:01:46 10° NNW 08:07:24 41° NE 08:13:09 10° SE daylight
27 Jun - 09:48:26 10° NW 09:53:31 29° WSW 09:58:43 10° SSW daylight
27 Jun - 23:06:09 10° SSW 23:12:00 84° ESE 23:17:50 10° NNE visible
28 Jun - 00:55:28 10° W 00:59:02 16° NW 01:02:36 10° N visible
28 Jun - 06:27:17 10° NNE 06:29:00 11° NE 06:30:44 10° ENE visible
28 Jun - 08:10:36 10° NNW 08:16:32 61° ENE 08:22:35 10° SE daylight
28 Jun - 09:58:15 10° WNW 10:02:20 19° WSW 10:06:27 10° SSW daylight
28 Jun - 21:31:52 10° SE 21:35:20 16° ESE 21:38:48 10° ENE daylight
28 Jun - 23:15:14 10° SW 23:21:01 65° WNW 23:26:49 10° NNE visible
29 Jun - 01:06:41 10° WNW 01:08:29 11° NW 01:10:18 10° NNW visible
29 Jun - 06:34:53 10° N 06:38:28 16° NE 06:42:06 10° E visible
29 Jun - 08:19:33 10° NNW 08:25:34 90° WSW 08:31:44 10° SSE daylight
29 Jun - 10:09:07 10° W 10:11:04 12° WSW 10:13:02 10° WSW daylight
29 Jun - 21:39:24 10° SSE 21:44:06 26° ESE 21:48:48 10° NE daylight
29 Jun - 23:24:35 10° SW 23:30:07 43° WNW 23:35:40 10° NNE visible
30 Jun - 06:43:13 10° N 06:47:50 23° NE 06:52:32 10° E daylight
30 Jun - 08:28:39 10° NW 08:34:33 60° WSW 08:40:35 10° SSE daylight
30 Jun - 21:47:33 10° S 21:52:56 40° ESE 21:58:19 10° NE daylight
30 Jun - 23:34:16 10° WSW 23:39:19 30° NW 23:44:23 10° N visible
01 Jul - 06:51:48 10° N 06:57:07 32° NE 07:02:31 10° ESE daylight
01 Jul - 08:37:55 10° NW 08:43:27 39° WSW 08:49:07 10° S daylight
01 Jul - 21:56:06 10° SSW 22:01:50 62° ESE 22:07:35 10° NE daylight
01 Jul - 23:44:17 10° W 23:48:35 21° NW 23:52:55 10° N visible
02 Jul - 07:00:31 10° NNW 07:06:17 47° ENE 07:12:09 10° SE daylight
02 Jul - 08:47:27 10° NW 08:52:18 26° WSW 08:57:15 10° SSW daylight
02 Jul - 20:23:39 10° ESE 20:25:21 11° ESE 20:27:04 10° E daylight
02 Jul - 22:04:58 10° SSW 22:10:49 87° WNW 22:16:40 10° NNE daylight
